AirNav   Pilot Hours Calculator
 
 1074 users online  

4TA0 Prairie Aire Field Airport
Damon, Texas, USA

GOING TO DAMON?


FAA INFORMATION EFFECTIVE 31 DECEMBER 2020

Location

FAA Identifier: 4TA0
Lat/Long: 29-21-19.8720N 095-39-49.8090W
29-21.331200N 095-39.830150W
29.3555200,-95.6638358
(estimated)
Elevation: 65 ft. / 20 m (estimated)
Variation: 06E (1985)
From city: 4 miles E of DAMON, TX
Time zone: UTC -6 (UTC -5 during Daylight Saving Time)
Zip code: 77461

Airport Operations

Airport use: Private use. Permission required prior to landing
Activation date: 12/1980
Control tower: no
ARTCC: HOUSTON CENTER
FSS: MONTGOMERY COUNTY FLIGHT SERVICE STATION
Attendance: UNATNDD
Wind indicator: yes
Segmented circle: no
Lights: FOR MIRL RY 17/35 CALL 832-877-1251.

Airport Communications

WX AWOS-3 at AXH (13 nm NE): 123.625 (281-431-6572)
WX ASOS at SGR (16 nm N): 118.125 (281-242-7605)
WX ASOS at LBX (18 nm SE): 119.925 (979-849-3319)

Nearby radio navigation aids

VOR radial/distance  VOR name  Freq  Var
ELAr110/38.8EAGLE LAKE VOR/DME116.4008E
IAHr200/39.7HUMBLE VORTAC116.6005E

 
NDB name  Hdg/Dist  Freq  Var  ID
WHARTON074/26.324503EARM .- .-. --

Airport Services

Fuel available: A MOGAS

Runway Information

Runway 17/35

Dimensions: 3200 x 35 ft. / 975 x 11 m
1000' TURF OVRN EACH END & 15' OVRN TURF ON WIDTH EACH SIDE.
Surface: asphalt
Runway edge lights: medium intensity
RUNWAY 17  RUNWAY 35
Traffic pattern: leftleft

Airport Ownership and Management from official FAA records

Ownership: Privately-owned
Owner: PRAIRIE AIRE OWNERS GROUP INC
22915 PIPER ROAD
NEEDVILLE, TX 77461
Phone 832-877-1251
Manager: JOHN D. NORWOOD
22915 PIPER ROAD
NEEDVILLE, TX 77461
Phone 832-877-1251

Airport Operational Statistics

Aircraft based on the field: 11
Single engine airplanes: 5
Multi engine airplanes: 1
Ultralights: 5
    

Additional Remarks

FOR CD CTC HOUSTON ARTCC AT 281-230-5622.

Instrument Procedures

There are no published instrument procedures at 4TA0.

Some nearby airports with instrument procedures:

KAXH - Houston Southwest Airport (13 nm NE)
KSGR - Sugar Land Regional Airport (16 nm N)
KLBX - Texas Gulf Coast Regional Airport (18 nm SE)
KLVJ - Pearland Regional Airport (24 nm NE)
KBYY - Bay City Regional Airport (25 nm SW)
 
Loc | Ops | Rwys | IFR | FBO | Links
Com | Nav | Svcs | Stats | Notes
Area around 4TA0 (Prairie Aire Field Airport)
 
Road maps at: MapQuest Bing Google
 
Aerial photo
WARNING: Photo may not be current or correct
Aerial photo of 4TA0 (Prairie Aire Field Airport)
Do you have a better or more recent aerial photo of Prairie Aire Field Airport that you would like to share? If so, please send us your photo.

 
Sectional chart

 
Airport distance calculator
Flying to Prairie Aire Field Airport? Find the distance to fly.

From to 4TA0

Sunrise and sunset
Times for 17-Jan-2021
 Local
(UTC-6)
 Zulu
(UTC)
Morning civil twilight06:5312:53
Sunrise07:1913:19
Sunset17:4723:47
Evening civil twilight18:1300:13

Current date and time
Zulu (UTC)  17-Jan-2021 22:32:11
Local (UTC-6)  17-Jan-2021 16:32:11
 
METAR
KAXH 
13nm NE 
172215Z AUTO 33008KT 10SM CLR 19/M04 A3007 RMK AO2 T01921038
KSGR 
16nm N 
172153Z 34009KT 10SM CLR 20/M04 A3006 RMK AO2 SLP180 T02001039
KLBX 
18nm SE 
172153Z AUTO 34008KT 10SM FEW031 21/M04 A3006 RMK AO2 SLP178 T02111044
KLVJ 
24nm NE 
172204Z AUTO 32007KT 8SM OVC028 19/M04 A3007 RMK AO2 T01941039
KBYY 
25nm SW 
172215Z AUTO 32004KT 10SM CLR 20/00 A3006 RMK AO2 T02001006
KHOU 
26nm NE 
172153Z 32010KT 10SM CLR 20/M06 A3006 RMK AO2 SLP183 T02001056
KARM 
26nm W 
172215Z AUTO 29004KT 10SM CLR 20/M05 A3007 RMK AO2 T01971050
TAF
KSGR 
16nm N 
171720Z 1718/1818 29005KT P6SM SKC FM180000 VRB03KT P6SM FEW250 FM181500 14006KT P6SM FEW030 FEW250
KLBX 
18nm SE 
171720Z 1718/1818 32003KT P6SM SKC FM180000 VRB02KT P6SM FEW250 FM181500 13006KT P6SM FEW030 FEW250
NOTAMs
Click for the latest NOTAMs
NOTAMs are issued by the DoD/FAA and will open in a separate window not controlled by AirNav.

 

 
 

Would you like to see your business listed on this page?

 If your business provides an interesting product or service to pilots, flight crews, aircraft, or users of the Prairie Aire Field Airport, you should consider listing it here.  To start the listing process, click on the button below
 
Add a business
 

Other Pages about Prairie Aire Field Airport

Update a link
 
Copyright © AirNav, LLC. All rights reserved. Privacy Policy  Contact